Location: Morehouse Lake Observatory
(43.3628°N, 74.6770°W)
Time: 14:52:09
(UTC-05:00)

Envisat - Pass Details

Date: 30 October 2019
Orbit: 764 x 766 km, 98.1° (Epoch: 20 November)

Event Time Altitude Azimuth Distance (km) Brightness Sun altitude
Rises 20:39:16 0° 223° (SW) 3,221 6.6 -30.7°
Reaches altitude 10° 20:43:59 10° 263° (W) 2,303 6.3 -31.5°
Maximum altitude 20:44:51 10° 273° (W) 2,276 6.3 -31.7°
Drops below altitude 10° 20:45:43 10° 283° (WNW) 2,305 6.3 -31.8°
Sets 20:50:29 0° 324° (NW) 3,240 6.9 -32.7°
